ESR225 RKSI-RKJB

Flight info

Callsign ESR225
Flight time 0h 42m
Altitude 25000
Route RKSI/34R N0391F270 BOPT2Y BOPTA Z51 BEDES Y711 MANGI MANG2C RKJB/01
Aircraft B736/M-SCDFGHIRUWXYZ/L

Departure

Time 2026-04-20 13:45
Airport Incheon International Airport (RKSI)

Arrival

Time 2026-04-20 14:28
Airport Muan International Airport (RKJB)
Time Latitude Longitude Altitude Speed Heading
2026-04-20 13:17 37.46365 126.43369 0 ft 0 kts 235°
2026-04-20 13:34 37.46370 126.43379 0 ft 4 kts 235°
2026-04-20 13:34 37.46386 126.43407 23 ft 4 kts 235°
2026-04-20 13:34 37.46400 126.43436 32 ft 4 kts 240°
2026-04-20 13:34 37.46413 126.43466 31 ft 4 kts 244°
2026-04-20 13:35 37.46424 126.43497 31 ft 4 kts 247°
2026-04-20 13:35 37.46435 126.43528 29 ft 4 kts 246°
2026-04-20 13:35 37.46447 126.43558 32 ft 4 kts 234°
2026-04-20 13:35 37.46456 126.43574 32 ft 2 kts 234°
2026-04-20 13:36 37.46457 126.43576 32 ft 0 kts 234°
2026-04-20 13:38 37.46449 126.43561 32 ft 5 kts 234°
2026-04-20 13:38 37.46407 126.43517 32 ft 10 kts 187°
2026-04-20 13:38 37.46338 126.43570 31 ft 14 kts 144°
2026-04-20 13:38 37.46249 126.43648 31 ft 17 kts 145°
2026-04-20 13:39 37.46154 126.43608 32 ft 16 kts 234°
2026-04-20 13:39 37.46089 126.43492 32 ft 16 kts 234°
2026-04-20 13:39 37.46026 126.43380 30 ft 15 kts 235°
2026-04-20 13:39 37.45966 126.43274 32 ft 15 kts 234°
2026-04-20 13:40 37.45888 126.43220 32 ft 14 kts 160°
2026-04-20 13:40 37.45809 126.43287 30 ft 13 kts 144°
2026-04-20 13:40 37.45735 126.43353 31 ft 13 kts 145°
2026-04-20 13:40 37.45662 126.43418 32 ft 13 kts 144°
2026-04-20 13:41 37.45591 126.43481 30 ft 13 kts 144°
2026-04-20 13:41 37.45516 126.43548 31 ft 13 kts 145°
2026-04-20 13:41 37.45433 126.43621 31 ft 16 kts 145°
2026-04-20 13:41 37.45327 126.43716 31 ft 21 kts 144°
2026-04-20 13:42 37.45196 126.43832 32 ft 25 kts 144°
2026-04-20 13:42 37.44879 126.44115 32 ft 29 kts 144°
2026-04-20 13:42 37.44723 126.44254 31 ft 26 kts 144°
2026-04-20 13:43 37.44587 126.44375 30 ft 21 kts 144°
2026-04-20 13:43 37.44486 126.44404 32 ft 16 kts 218°
2026-04-20 13:43 37.44427 126.44302 32 ft 14 kts 235°
2026-04-20 13:43 37.44376 126.44205 31 ft 13 kts 248°
2026-04-20 13:44 37.44397 126.44126 31 ft 0 kts 324°
2026-04-20 13:44 37.44413 126.44111 32 ft 11 kts 324°
2026-04-20 13:44 37.44718 126.43839 32 ft 98 kts 324°
2026-04-20 13:45 37.45482 126.43187 179 ft 157 kts 323°
2026-04-20 13:45 37.46371 126.42491 1401 ft 135 kts 324°
2026-04-20 13:45 37.47019 126.41847 2683 ft 113 kts 310°
2026-04-20 13:45 37.47579 126.41013 3190 ft 143 kts 313°
2026-04-20 13:46 37.48304 126.39950 3586 ft 178 kts 313°
2026-04-20 13:46 37.49175 126.38653 3983 ft 204 kts 313°
2026-04-20 13:46 37.50030 126.37205 4925 ft 209 kts 301°
2026-04-20 13:46 37.50441 126.35369 5774 ft 231 kts 283°
2026-04-20 13:47 37.50523 126.33312 6852 ft 237 kts 279°
2026-04-20 13:47 37.50550 126.31234 7987 ft 237 kts 278°
2026-04-20 13:47 37.50581 126.29184 9115 ft 238 kts 277°
2026-04-20 13:47 37.50621 126.27098 10218 ft 239 kts 276°
2026-04-20 13:48 37.50668 126.24984 11137 ft 244 kts 276°
2026-04-20 13:48 37.50718 126.22823 12067 ft 249 kts 276°
2026-04-20 13:48 37.50477 126.20622 12986 ft 264 kts 257°
2026-04-20 13:48 37.49533 126.18568 13946 ft 281 kts 239°
2026-04-20 13:49 37.47995 126.16931 14803 ft 303 kts 217°
2026-04-20 13:49 37.46026 126.15897 15781 ft 308 kts 211°
2026-04-20 13:49 37.43999 126.14991 16711 ft 314 kts 206°
2026-04-20 13:49 37.41743 126.14769 17586 ft 340 kts 181°
2026-04-20 13:50 37.39452 126.15797 18497 ft 365 kts 154°
2026-04-20 13:50 37.37534 126.18016 19211 ft 384 kts 137°
2026-04-20 13:50 37.35803 126.20630 19785 ft 395 kts 136°
2026-04-20 13:50 37.34030 126.23317 20347 ft 404 kts 137°
2026-04-20 13:51 37.32188 126.26026 20971 ft 411 kts 139°
2026-04-20 13:51 37.30296 126.28748 21613 ft 417 kts 140°
2026-04-20 13:51 37.28361 126.31504 22257 ft 424 kts 141°
2026-04-20 13:51 37.26392 126.34302 22885 ft 431 kts 141°
2026-04-20 13:52 37.24391 126.37151 23528 ft 439 kts 142°
2026-04-20 13:52 37.22359 126.40046 24089 ft 445 kts 142°
2026-04-20 13:52 37.20277 126.42922 24705 ft 441 kts 149°
2026-04-20 13:52 37.17873 126.45068 25012 ft 407 kts 171°
2026-04-20 13:53 37.15303 126.46361 25081 ft 396 kts 177°
2026-04-20 13:53 37.12717 126.47516 25080 ft 393 kts 178°
2026-04-20 13:53 37.10141 126.48671 25074 ft 392 kts 177°
2026-04-20 13:53 37.07580 126.49857 25078 ft 392 kts 176°
2026-04-20 13:54 37.05029 126.51062 25082 ft 392 kts 176°
2026-04-20 13:54 37.02478 126.52197 25081 ft 384 kts 180°
2026-04-20 13:54 36.99929 126.53075 25089 ft 378 kts 184°
2026-04-20 13:54 36.97381 126.53854 25088 ft 377 kts 184°
2026-04-20 13:55 36.94827 126.54633 25087 ft 379 kts 183°
2026-04-20 13:55 36.92260 126.55449 25093 ft 381 kts 182°
2026-04-20 13:55 36.89694 126.56287 25089 ft 382 kts 182°
2026-04-20 13:55 36.87119 126.57138 25085 ft 383 kts 182°
2026-04-20 13:56 36.84538 126.57991 25087 ft 383 kts 182°
2026-04-20 13:56 36.81958 126.58843 25082 ft 383 kts 182°
2026-04-20 13:56 36.79381 126.59692 25095 ft 383 kts 182°
2026-04-20 13:56 36.76800 126.60541 25092 ft 383 kts 182°
2026-04-20 13:57 36.74217 126.61388 25088 ft 384 kts 182°
2026-04-20 13:57 36.71635 126.62243 25087 ft 383 kts 181°
2026-04-20 13:57 36.69932 126.62815 25085 ft 383 kts 181°
2026-04-20 13:57 36.67365 126.63681 25088 ft 382 kts 181°
2026-04-20 13:58 36.64805 126.64545 25105 ft 381 kts 181°
2026-04-20 13:58 36.61380 126.65696 25098 ft 381 kts 181°
2026-04-20 13:58 36.59689 126.66264 25095 ft 381 kts 181°
2026-04-20 13:58 36.57131 126.67121 25096 ft 381 kts 181°
2026-04-20 13:59 36.54573 126.67978 25098 ft 380 kts 181°
2026-04-20 13:59 36.52019 126.68833 25101 ft 380 kts 181°
2026-04-20 13:59 36.49466 126.69687 25104 ft 380 kts 181°
2026-04-20 13:59 36.46911 126.70542 25101 ft 380 kts 181°
2026-04-20 14:00 36.44354 126.71397 25103 ft 380 kts 180°
2026-04-20 14:00 36.41804 126.72249 25117 ft 380 kts 180°
2026-04-20 14:00 36.39252 126.73100 25090 ft 379 kts 180°
2026-04-20 14:00 36.36707 126.73955 25094 ft 379 kts 180°
2026-04-20 14:01 36.34171 126.74811 25115 ft 378 kts 180°
2026-04-20 14:01 36.31631 126.75668 25124 ft 378 kts 180°
2026-04-20 14:01 36.29092 126.76523 25114 ft 379 kts 180°
2026-04-20 14:01 36.26543 126.77382 25094 ft 380 kts 180°
2026-04-20 14:02 36.23998 126.78241 25129 ft 379 kts 180°
2026-04-20 14:02 36.21446 126.79100 25114 ft 380 kts 180°
2026-04-20 14:02 36.18887 126.79961 25130 ft 381 kts 180°
2026-04-20 14:02 36.16329 126.80760 25126 ft 374 kts 185°
2026-04-20 14:03 36.13804 126.81089 25116 ft 357 kts 195°
2026-04-20 14:03 36.11376 126.80912 25131 ft 347 kts 200°
2026-04-20 14:03 36.08977 126.80629 25119 ft 346 kts 201°
2026-04-20 14:03 36.06581 126.80338 25122 ft 346 kts 200°
2026-04-20 14:04 36.04188 126.80055 25123 ft 346 kts 200°
2026-04-20 14:04 36.01787 126.79781 25119 ft 346 kts 200°
2026-04-20 14:04 35.99390 126.79516 25121 ft 345 kts 200°
2026-04-20 14:04 35.96999 126.79255 25124 ft 345 kts 200°
2026-04-20 14:05 35.94602 126.78995 25121 ft 345 kts 200°
2026-04-20 14:05 35.92215 126.78737 25121 ft 345 kts 199°
2026-04-20 14:05 35.89825 126.78480 25128 ft 344 kts 199°
2026-04-20 14:05 35.87442 126.78222 25123 ft 344 kts 199°
2026-04-20 14:06 35.85059 126.77964 25124 ft 344 kts 199°
2026-04-20 14:06 35.82666 126.77703 24888 ft 344 kts 199°
2026-04-20 14:06 35.80295 126.77450 24610 ft 341 kts 199°
2026-04-20 14:06 35.77934 126.77195 24263 ft 339 kts 199°
2026-04-20 14:07 35.75591 126.76945 23909 ft 336 kts 199°
2026-04-20 14:07 35.73271 126.76695 23522 ft 334 kts 199°
2026-04-20 14:07 35.70969 126.76447 23095 ft 331 kts 199°
2026-04-20 14:07 35.68713 126.76204 22707 ft 328 kts 199°
2026-04-20 14:08 35.66448 126.75960 22322 ft 325 kts 199°
2026-04-20 14:08 35.64202 126.75717 21947 ft 323 kts 199°
2026-04-20 14:08 35.61974 126.75476 21578 ft 321 kts 199°
2026-04-20 14:08 35.59755 126.75236 21210 ft 319 kts 199°
2026-04-20 14:09 35.57557 126.74997 20840 ft 317 kts 199°
2026-04-20 14:09 35.55366 126.74761 20486 ft 315 kts 200°
2026-04-20 14:09 35.53184 126.74526 20128 ft 314 kts 199°
2026-04-20 14:09 35.51014 126.74292 19770 ft 313 kts 199°
2026-04-20 14:10 35.48835 126.74054 19189 ft 320 kts 199°
2026-04-20 14:10 35.46601 126.73808 18735 ft 323 kts 199°
2026-04-20 14:10 35.44348 126.73565 18314 ft 327 kts 199°
2026-04-20 14:10 35.42081 126.73324 17872 ft 327 kts 198°
2026-04-20 14:11 35.39824 126.73086 17499 ft 325 kts 198°
2026-04-20 14:11 35.37584 126.72851 17131 ft 322 kts 197°
2026-04-20 14:11 35.35358 126.72616 16754 ft 320 kts 197°
2026-04-20 14:11 35.33152 126.72381 16406 ft 317 kts 196°
2026-04-20 14:12 35.30958 126.72146 16034 ft 315 kts 196°
2026-04-20 14:12 35.28780 126.71913 15694 ft 314 kts 195°
2026-04-20 14:12 35.26610 126.71681 15327 ft 312 kts 195°
2026-04-20 14:12 35.24448 126.71449 14854 ft 314 kts 194°
2026-04-20 14:13 35.22252 126.71211 14390 ft 317 kts 193°
2026-04-20 14:13 35.20069 126.70979 13980 ft 318 kts 193°
2026-04-20 14:13 35.17868 126.70746 13549 ft 318 kts 192°
2026-04-20 14:13 35.15656 126.70511 13070 ft 319 kts 192°
2026-04-20 14:14 35.13451 126.70278 12693 ft 317 kts 192°
2026-04-20 14:14 35.11258 126.70046 12312 ft 315 kts 192°
2026-04-20 14:14 35.09079 126.69814 11942 ft 313 kts 191°
2026-04-20 14:14 35.06911 126.69584 11581 ft 312 kts 191°
2026-04-20 14:15 35.04753 126.69356 11222 ft 311 kts 191°
2026-04-20 14:15 35.02581 126.69124 10704 ft 315 kts 191°
2026-04-20 14:15 35.00401 126.68892 10309 ft 315 kts 190°
2026-04-20 14:15 34.98236 126.68664 10119 ft 308 kts 190°
2026-04-20 14:16 34.96125 126.68442 9849 ft 303 kts 190°
2026-04-20 14:16 34.94023 126.68220 9499 ft 302 kts 190°
2026-04-20 14:16 34.91951 126.67920 9154 ft 296 kts 200°
2026-04-20 14:16 34.90129 126.66886 8821 ft 285 kts 218°
2026-04-20 14:17 34.88457 126.65602 8487 ft 284 kts 219°
2026-04-20 14:17 34.86799 126.64305 8151 ft 283 kts 219°
2026-04-20 14:17 34.85145 126.63016 7837 ft 282 kts 218°
2026-04-20 14:17 34.83493 126.61738 7523 ft 281 kts 218°
2026-04-20 14:18 34.81860 126.60484 7202 ft 281 kts 218°
2026-04-20 14:18 34.80209 126.59222 6888 ft 280 kts 218°
2026-04-20 14:18 34.78561 126.57963 6592 ft 279 kts 218°
2026-04-20 14:18 34.76945 126.56668 6249 ft 275 kts 227°
2026-04-20 14:19 34.75767 126.54923 5971 ft 263 kts 244°
2026-04-20 14:19 34.74869 126.53010 5655 ft 259 kts 251°
2026-04-20 14:19 34.74146 126.51020 5356 ft 256 kts 255°
2026-04-20 14:19 34.73538 126.49001 5057 ft 253 kts 258°
2026-04-20 14:20 34.73021 126.46962 4765 ft 251 kts 261°
2026-04-20 14:20 34.72607 126.44920 4479 ft 247 kts 265°
2026-04-20 14:20 34.72301 126.42878 4201 ft 244 kts 269°
2026-04-20 14:20 34.72391 126.40913 3962 ft 222 kts 296°
2026-04-20 14:21 34.73201 126.39468 3880 ft 199 kts 323°
2026-04-20 14:21 34.74349 126.38661 3818 ft 185 kts 342°
2026-04-20 14:21 34.75572 126.38452 3716 ft 171 kts 358°
2026-04-20 14:21 34.76706 126.38441 3647 ft 155 kts 356°
2026-04-20 14:22 34.77792 126.38424 3585 ft 156 kts 356°
2026-04-20 14:22 34.78875 126.38413 3514 ft 154 kts 356°
2026-04-20 14:22 34.79925 126.38405 3441 ft 152 kts 356°
2026-04-20 14:22 34.80979 126.38397 3318 ft 153 kts 356°
2026-04-20 14:23 34.82057 126.38390 3117 ft 155 kts 358°
2026-04-20 14:23 34.83127 126.38383 2907 ft 152 kts 358°
2026-04-20 14:23 34.84165 126.38378 2694 ft 145 kts 357°
2026-04-20 14:23 34.85154 126.38371 2507 ft 141 kts 358°
2026-04-20 14:24 34.86113 126.38365 2332 ft 137 kts 358°
2026-04-20 14:24 34.87055 126.38361 2233 ft 134 kts 357°
2026-04-20 14:24 34.87948 126.38354 2071 ft 125 kts 357°
2026-04-20 14:24 34.88804 126.38348 1929 ft 126 kts 358°
2026-04-20 14:25 34.89676 126.38342 1746 ft 124 kts 358°
2026-04-20 14:25 34.90532 126.38337 1558 ft 121 kts 358°
2026-04-20 14:25 34.91351 126.38332 1409 ft 117 kts 358°
2026-04-20 14:25 34.92171 126.38326 1239 ft 118 kts 358°
2026-04-20 14:26 34.92998 126.38321 1071 ft 119 kts 359°
2026-04-20 14:26 34.93805 126.38318 820 ft 117 kts 357°
2026-04-20 14:26 34.94659 126.38299 670 ft 123 kts 357°
2026-04-20 14:26 34.95518 126.38297 534 ft 123 kts 359°
2026-04-20 14:27 34.96379 126.38300 375 ft 124 kts 358°
2026-04-20 14:27 34.97228 126.38290 217 ft 123 kts 359°
2026-04-20 14:27 34.98074 126.38292 69 ft 114 kts 358°
2026-04-20 14:27 34.98760 126.38289 44 ft 81 kts 360°
2026-04-20 14:28 34.99173 126.38286 44 ft 37 kts 360°
2026-04-20 14:28 34.99415 126.38285 43 ft 32 kts 359°
2026-04-20 14:28 34.99623 126.38283 44 ft 29 kts 359°
2026-04-20 14:28 34.99723 126.38386 45 ft 17 kts 90°
2026-04-20 14:29 34.99712 126.38482 43 ft 3 kts 146°
2026-04-20 14:29 34.99684 126.38481 44 ft 6 kts 182°
2026-04-20 14:29 34.99631 126.38480 44 ft 10 kts 181°
2026-04-20 14:29 34.99544 126.38482 44 ft 15 kts 179°
2026-04-20 14:30 34.99422 126.38484 44 ft 20 kts 180°
2026-04-20 14:30 34.99289 126.38483 44 ft 18 kts 179°
2026-04-20 14:30 34.99275 126.38569 44 ft 11 kts
2026-04-20 14:30 34.99328 126.38585 44 ft 6 kts 42°
2026-04-20 14:31 34.99338 126.38630 44 ft 5 kts 89°
2026-04-20 14:31 34.99338 126.38667 44 ft 2 kts 90°
2026-04-20 14:31 34.99338 126.38669 44 ft 0 kts 90°